Regional Weather Roundup
Issued by NWS

Home | Current Version | Previous Version | Text Only | Print | Product List | Glossary Off
Versions: 1 2 3 4 5 6 7 8 9 10 11 12 13 14 15 16 17 18 19 20 21 22 23 24 25 26 27 28 29 30 31 32 33 34 35 36 37 38 39 40 41 42 43 44 45 46 47 48 49 50

000
ASUS43 KFSD 021310
RWRSD

WEATHER ROUNDUP FOR SOUTH DAKOTA
NATIONAL WEATHER SERVICE SIOUX FALLS SD
800 AM CDT WED SEP 02 2015

NOTE: "FAIR" INDICATES FEW OR NO CLOUDS BELOW 12,000 FEET WITH NO
SIGNIFICANT WEATHER AND/OR OBSTRUCTIONS TO VISIBILITY.


SDZ001>005-009-010-012>017-021400-
NORTHWEST AND NORTH CENTRAL SOUTH DAKOTA

CITY           SKY/WX    TMP DP  RH WIND       PRES   REMARKS
BUFFALO          N/A     62  54  74 E7        29.77R
FAITH            N/A     63  54  72 E9        29.81R
MOBRIDGE       FOG       63  63 100 S3        29.79R VSB 1/4
$$

SDZ012>016-024>037-041>051-057-063-072>074-021400-
SOUTHWEST AND SOUTH CENTRAL SOUTH DAKOTA

CITY           SKY/WX    TMP DP  RH WIND       PRES   REMARKS
RAPID CTY ARPT MOCLDY    61  52  72 NW3       29.85R
PIERRE         FOG       60  60 100 CALM      29.78R VSB 1/4
CUSTER         CLOUDY    67  40  37 W8        30.05R
ELLSWORTH AFB  MOCLDY    67  47  48 SE1       29.84S
PHILIP         PTCLDY    58  56  93 W5        29.81R
PINE RIDGE     PTCLDY    56  47  71 CALM      29.91R
WINNER         FAIR      68  60  75 S8        29.82R
$$

SDZ004>011-016>023-039-040-021400-
NORTHEAST SOUTH DAKOTA

CITY           SKY/WX    TMP DP  RH WIND       PRES   REMARKS
ABERDEEN       SUNNY     65  63  93 CALM      29.82R FOG
WATERTOWN      SUNNY     68  65  90 S8        29.86R FOG
BROOKINGS      SUNNY     66  63  88 SE8       29.88R
SISSETON         N/A     64  63  96 S7        29.83S
$$

SDZ017-020-022-023-036>040-048>070-021400-
SOUTHEAST SOUTH DAKOTA

CITY           SKY/WX    TMP DP  RH WIND       PRES   REMARKS
SIOUX FALLS    SUNNY     69  66  90 SE8       29.87R
HURON          SUNNY     68  66  93 SE8       29.79R FOG
CHAMBERLAIN    CLEAR     63  63  99 CALM      29.80R FOG
MITCHELL       SUNNY     68  66  93 SE9       29.81S FOG
YANKTON        SUNNY     66  64  94 SE9       29.84R
$$

ABBREVIATIONS USED IN REMARKS
   TC - TEMPERATURE IN CELSIUS
  WCI - WIND CHILL INDEX
   HX - HEAT INDEX
  VSB - VISIBILITY



USA.gov is the U.S. government's official web portal to all federal, state and local government web resources and services.